(°C)
(°C)
-4°
-4°
-3°
-2°
-2°
-2°
-2°
SO
SO
SO
SO
OSO
SO
SO
(km/h)
20-32
22-36
26-42
30-47
32-50
33-52
34-53
(mm)
0
0
0
0
0
0
0
(%)
0
0
0
0
0
0
0

Élévation du soleil

/ 14.1°
sun-icon
UV 1
07:46
18:10
Gibbeuse décroissante (201°)
18:55
09:24

METAR pour 51.02°N 71.47°E (UACC)

Heure Conditions Température/
Point de rosée
Vent Visibilité Météo Nuages Pression Changement Brut
VFR 1°C / -2°C 220º 14kt >10km - Scattered Clouds 1000ft
Broken Clouds 4000ft
1018 No Significant change. Runway 22: Clear and dry, , friction coefficient 0.70. UACC 220300Z 22007MPS 9999 SCT010 BKN040CB 01/M02 Q1018 R22/0///70 NOSIG RMK QFE732/0977
MVFR 1°C / -2°C 230º 14kt >10km - Scattered Clouds 1000ft
Broken Clouds 3000ft
1018 No Significant change. Runway 22: Frost, 11-25% contamination, friction coefficient 0.55. UACC 220230Z 23007MPS 9999 SCT010 BKN030CB 01/M02 Q1018 R22/32//55 NOSIG RMK QFE732/0976
VFR 1°C / -2°C 230º 14kt >10km - Scattered Clouds 1000ft
Broken Clouds 3100ft
1018 No Significant change. Runway 22: Frost, 11-25% contamination, friction coefficient 0.55. UACC 220200Z 23007MPS 9999 SCT010 BKN031CB 01/M02 Q1018 R22/32//55 NOSIG RMK QFE732/0976
MVFR 1°C / -2°C 240º 12kt >10km Light Showers Snow Light Showers Rain 3.00mm precipitation Vertical Visibility of 0ft.
Broken Clouds 3000ft
1017 Temporary: Visibility 2000. Showers Snow Rain . RMK QFE732/0976 . Runway 22: Frost, 11-25% contamination, friction coefficient 0.55. UACC 220130Z 24006MPS 9999 -SHSNRA SCT010 BKN030CB 01/M02 Q1017 R22/32//55 TEMPO 2000 SHSNRA RMK QFE732/0976
MVFR 0°C / -2°C 240º 14kt >10km Light Showers Snow Light Showers Rain 3.00mm precipitation Vertical Visibility of 0ft.
Broken Clouds 2600ft
1017 Temporary: Visibility 2000. Showers Snow Rain . RMK QFE731/0975 . Runway 22: Frost, 11-25% contamination, friction coefficient 0.55. UACC 220100Z 24007MPS 9999 -SHSNRA SCT010 BKN026CB 00/M02 Q1017 R22/32//55 TEMPO 2000 SHSNRA RMK QFE731/0975
MVFR 0°C / -2°C 240º 12kt >10km Light Showers Snow Light Showers Rain 3.00mm precipitation Vertical Visibility of 0ft.
Broken Clouds 2900ft
1017 Temporary: Visibility 2000. Showers Snow Rain . RMK QFE731/0975 . Runway 22: Frost, 11-25% contamination, friction coefficient 0.55. UACC 220030Z 24006MPS 9999 -SHSNRA SCT008 BKN029CB 00/M02 Q1017 R22/32//55 TEMPO 2000 SHSNRA RMK QFE731/0975
MVFR 0°C / -1°C 240º 12kt >10km Light Showers Snow Light Showers Rain 3.00mm precipitation Vertical Visibility of 0ft.
Broken Clouds 3000ft
1016 Temporary: Visibility 2000. Showers Snow Rain . RMK QFE731/0975 . Runway 22: Frost, 11-25% contamination, friction coefficient 0.55. UACC 220000Z 24006MPS 9999 -SHSNRA SCT008 BKN030CB 00/M01 Q1016 R22/32//55 TEMPO 2000 SHSNRA RMK QFE731/0975
MVFR 0°C / -2°C 240º 14kt 8000m Light Showers Snow Light Showers Rain 3.00mm precipitation Vertical Visibility of 0ft.
Broken Clouds 3300ft
1016 Temporary: Visibility 2000. Showers Snow Rain . RMK QFE731/0974 . Runway 22: Frost, 11-25% contamination, friction coefficient 0.55. UACC 212330Z 24007MPS 8000 -SHSNRA SCT010 BKN033CB 00/M02 Q1016 R22/32//55 TEMPO 2000 SHSNRA RMK QFE731/0974
MVFR 1°C / -2°C 240º 14kt 7000m Light Showers Snow Light Showers Rain 3.00mm precipitation Vertical Visibility of 0ft.
Broken Clouds 3300ft
1016 No Significant change. Runway 22: Clear and dry, , friction coefficient 0.70. UACC 212300Z 24007MPS 7000 -SHSNRA SCT012 BKN033CB 01/M02 Q1016 R22/0///70 NOSIG RMK QFE731/0974
VFR 0°C / -2°C 240º 14kt >10km - Few Clouds 1500ft
Broken Clouds 3600ft
1016 No Significant change. Runway 22: Clear and dry, , friction coefficient 0.70. UACC 212230Z 24007MPS 9999 FEW015 BKN036CB 00/M02 Q1016 R22/0///70 NOSIG RMK QFE730/0974
VFR 0°C / -2°C 240º 14kt >10km - Few Clouds 1600ft
Broken Clouds 3600ft
1015 No Significant change. Runway 22: Clear and dry, , friction coefficient 0.70. UACC 212200Z 24007MPS 9999 FEW016 BKN036CB 00/M02 Q1015 R22/0///70 NOSIG RMK QFE730/0974
MVFR 0°C / -2°C 240º 14kt 9000m Light Showers Snow 3.00mm precipitation Vertical Visibility of 0ft.
Overcast 2600ft
1015 No Significant change. Runway 22: Clear and dry, , friction coefficient 0.70. UACC 212130Z 24007MPS 9000 -SHSN SCT013 OVC026CB 00/M02 Q1015 R22/0///70 NOSIG RMK QFE730/0974
VFR 0°C / -3°C 240º 12kt >10km - Scattered Clouds 1600ft
Overcast 3300ft
1015 No Significant change. Runway 22: Clear and dry, , friction coefficient 0.70. UACC 212100Z 24006MPS 9999 SCT016 OVC033 00/M03 Q1015 R22/0///70 NOSIG RMK QFE730/0974
VFR 1°C / -3°C 250º 16kt >10km - Broken Clouds 4000ft 1015 No Significant change. Runway 22: Clear and dry, , friction coefficient 0.70. UACC 212030Z 25008MPS 9999 BKN040 01/M03 Q1015 R22/0///70 NOSIG RMK QFE730/0973
VFR 1°C / -3°C 250º 14kt >10km - Broken Clouds 3600ft 1014 No Significant change. Runway 22: Clear and dry, , friction coefficient 0.70. UACC 212000Z 25007MPS 9999 BKN036 01/M03 Q1014 R22/0///70 NOSIG RMK QFE730/0973
VFR 1°C / -3°C 240º 14kt >10km - Broken Clouds 3600ft 1014 No Significant change. Runway 22: Clear and dry, , friction coefficient 0.70. UACC 211930Z 24007MPS 9999 BKN036 01/M03 Q1014 R22/0///70 NOSIG RMK QFE729/0972
VFR 1°C / -4°C 250º 12kt >10km - Broken Clouds 3600ft 1014 No Significant change. Runway 22: Clear and dry, , friction coefficient 0.70. UACC 211900Z 25006MPS 9999 BKN036 01/M04 Q1014 R22/0///70 NOSIG RMK QFE729/0972
VFR 1°C / -3°C 250º 12kt >10km - Broken Clouds 3600ft 1013 No Significant change. Runway 22: Clear and dry, , friction coefficient 0.70. UACC 211830Z 25006MPS 9999 BKN036 01/M03 Q1013 R22/0///70 NOSIG RMK QFE729/0972
VFR 1°C / -3°C 250º 12kt >10km - Broken Clouds 3600ft 1013 No Significant change. Runway 22: Clear and dry, , friction coefficient 0.70. UACC 211800Z 25006MPS 9999 BKN036 01/M03 Q1013 R22/0///70 NOSIG RMK QFE729/0972
VFR 1°C / -3°C 240º 12kt >10km - Broken Clouds 3600ft 1013 No Significant change. Runway 22: Clear and dry, , friction coefficient 0.70. UACC 211730Z 24006MPS 9999 BKN036 01/M03 Q1013 R22/0///70 NOSIG RMK QFE729/0972
VFR 1°C / -2°C 240º 12kt >10km - Broken Clouds 4000ft 1013 No Significant change. Runway 22: Clear and dry, , friction coefficient 0.70. UACC 211700Z 24006MPS 9999 BKN040 01/M02 Q1013 R22/0///70 NOSIG RMK QFE728/0971
VFR 2°C / -2°C 250º 10kt >10km - Overcast 4000ft 1012 No Significant change. Runway 22: Clear and dry, , friction coefficient 0.70. UACC 211630Z 25005MPS 9999 OVC040 02/M02 Q1012 R22/0///70 NOSIG RMK QFE728/0971
VFR 2°C / -2°C 250º 12kt >10km - Overcast 3600ft 1012 No Significant change. Runway 22: Clear and dry, , friction coefficient 0.70. UACC 211600Z 25006MPS 9999 OVC036 02/M02 Q1012 R22/0///70 NOSIG RMK QFE728/0971
VFR 2°C / -2°C 250º 12kt >10km - Overcast 3300ft 1012 No Significant change. Runway 22: Clear and dry, , friction coefficient 0.70. UACC 211530Z 25006MPS 9999 OVC033 02/M02 Q1012 R22/0///70 NOSIG RMK QFE728/0970

VFR

1°C / -2°C

[Plus]
Vent 220º 14kt
Visibilité >10km
Météo -
Nuages Scattered Clouds 1000ft
Broken Clouds 4000ft
Pression 1018
Changement No Significant change. Runway 22: Clear and dry, , friction coefficient 0.70.
Brut UACC 220300Z 22007MPS 9999 SCT010 BKN040CB 01/M02 Q1018 R22/0///70 NOSIG RMK QFE732/0977

MVFR

1°C / -2°C

[Plus]
Vent 230º 14kt
Visibilité >10km
Météo -
Nuages Scattered Clouds 1000ft
Broken Clouds 3000ft
Pression 1018
Changement No Significant change. Runway 22: Frost, 11-25% contamination, friction coefficient 0.55.
Brut UACC 220230Z 23007MPS 9999 SCT010 BKN030CB 01/M02 Q1018 R22/32//55 NOSIG RMK QFE732/0976

VFR

1°C / -2°C

[Plus]
Vent 230º 14kt
Visibilité >10km
Météo -
Nuages Scattered Clouds 1000ft
Broken Clouds 3100ft
Pression 1018
Changement No Significant change. Runway 22: Frost, 11-25% contamination, friction coefficient 0.55.
Brut UACC 220200Z 23007MPS 9999 SCT010 BKN031CB 01/M02 Q1018 R22/32//55 NOSIG RMK QFE732/0976

MVFR

1°C / -2°C

[Plus]
Vent 240º 12kt
Visibilité >10km
Météo Light Showers Snow Light Showers Rain 3.00mm precipitation
Nuages Vertical Visibility of 0ft.
Broken Clouds 3000ft
Pression 1017
Changement Temporary: Visibility 2000. Showers Snow Rain . RMK QFE732/0976 . Runway 22: Frost, 11-25% contamination, friction coefficient 0.55.
Brut UACC 220130Z 24006MPS 9999 -SHSNRA SCT010 BKN030CB 01/M02 Q1017 R22/32//55 TEMPO 2000 SHSNRA RMK QFE732/0976

MVFR

0°C / -2°C

[Plus]
Vent 240º 14kt
Visibilité >10km
Météo Light Showers Snow Light Showers Rain 3.00mm precipitation
Nuages Vertical Visibility of 0ft.
Broken Clouds 2600ft
Pression 1017
Changement Temporary: Visibility 2000. Showers Snow Rain . RMK QFE731/0975 . Runway 22: Frost, 11-25% contamination, friction coefficient 0.55.
Brut UACC 220100Z 24007MPS 9999 -SHSNRA SCT010 BKN026CB 00/M02 Q1017 R22/32//55 TEMPO 2000 SHSNRA RMK QFE731/0975

MVFR

0°C / -2°C

[Plus]
Vent 240º 12kt
Visibilité >10km
Météo Light Showers Snow Light Showers Rain 3.00mm precipitation
Nuages Vertical Visibility of 0ft.
Broken Clouds 2900ft
Pression 1017
Changement Temporary: Visibility 2000. Showers Snow Rain . RMK QFE731/0975 . Runway 22: Frost, 11-25% contamination, friction coefficient 0.55.
Brut UACC 220030Z 24006MPS 9999 -SHSNRA SCT008 BKN029CB 00/M02 Q1017 R22/32//55 TEMPO 2000 SHSNRA RMK QFE731/0975

MVFR

0°C / -1°C

[Plus]
Vent 240º 12kt
Visibilité >10km
Météo Light Showers Snow Light Showers Rain 3.00mm precipitation
Nuages Vertical Visibility of 0ft.
Broken Clouds 3000ft
Pression 1016
Changement Temporary: Visibility 2000. Showers Snow Rain . RMK QFE731/0975 . Runway 22: Frost, 11-25% contamination, friction coefficient 0.55.
Brut UACC 220000Z 24006MPS 9999 -SHSNRA SCT008 BKN030CB 00/M01 Q1016 R22/32//55 TEMPO 2000 SHSNRA RMK QFE731/0975

MVFR

0°C / -2°C

[Plus]
Vent 240º 14kt
Visibilité 8000m
Météo Light Showers Snow Light Showers Rain 3.00mm precipitation
Nuages Vertical Visibility of 0ft.
Broken Clouds 3300ft
Pression 1016
Changement Temporary: Visibility 2000. Showers Snow Rain . RMK QFE731/0974 . Runway 22: Frost, 11-25% contamination, friction coefficient 0.55.
Brut UACC 212330Z 24007MPS 8000 -SHSNRA SCT010 BKN033CB 00/M02 Q1016 R22/32//55 TEMPO 2000 SHSNRA RMK QFE731/0974

MVFR

1°C / -2°C

[Plus]
Vent 240º 14kt
Visibilité 7000m
Météo Light Showers Snow Light Showers Rain 3.00mm precipitation
Nuages Vertical Visibility of 0ft.
Broken Clouds 3300ft
Pression 1016
Changement No Significant change. Runway 22: Clear and dry, , friction coefficient 0.70.
Brut UACC 212300Z 24007MPS 7000 -SHSNRA SCT012 BKN033CB 01/M02 Q1016 R22/0///70 NOSIG RMK QFE731/0974

VFR

0°C / -2°C

[Plus]
Vent 240º 14kt
Visibilité >10km
Météo -
Nuages Few Clouds 1500ft
Broken Clouds 3600ft
Pression 1016
Changement No Significant change. Runway 22: Clear and dry, , friction coefficient 0.70.
Brut UACC 212230Z 24007MPS 9999 FEW015 BKN036CB 00/M02 Q1016 R22/0///70 NOSIG RMK QFE730/0974

VFR

0°C / -2°C

[Plus]
Vent 240º 14kt
Visibilité >10km
Météo -
Nuages Few Clouds 1600ft
Broken Clouds 3600ft
Pression 1015
Changement No Significant change. Runway 22: Clear and dry, , friction coefficient 0.70.
Brut UACC 212200Z 24007MPS 9999 FEW016 BKN036CB 00/M02 Q1015 R22/0///70 NOSIG RMK QFE730/0974

MVFR

0°C / -2°C

[Plus]
Vent 240º 14kt
Visibilité 9000m
Météo Light Showers Snow 3.00mm precipitation
Nuages Vertical Visibility of 0ft.
Overcast 2600ft
Pression 1015
Changement No Significant change. Runway 22: Clear and dry, , friction coefficient 0.70.
Brut UACC 212130Z 24007MPS 9000 -SHSN SCT013 OVC026CB 00/M02 Q1015 R22/0///70 NOSIG RMK QFE730/0974

VFR

0°C / -3°C

[Plus]
Vent 240º 12kt
Visibilité >10km
Météo -
Nuages Scattered Clouds 1600ft
Overcast 3300ft
Pression 1015
Changement No Significant change. Runway 22: Clear and dry, , friction coefficient 0.70.
Brut UACC 212100Z 24006MPS 9999 SCT016 OVC033 00/M03 Q1015 R22/0///70 NOSIG RMK QFE730/0974

VFR

1°C / -3°C

[Plus]
Vent 250º 16kt
Visibilité >10km
Météo -
Nuages Broken Clouds 4000ft
Pression 1015
Changement No Significant change. Runway 22: Clear and dry, , friction coefficient 0.70.
Brut UACC 212030Z 25008MPS 9999 BKN040 01/M03 Q1015 R22/0///70 NOSIG RMK QFE730/0973

VFR

1°C / -3°C

[Plus]
Vent 250º 14kt
Visibilité >10km
Météo -
Nuages Broken Clouds 3600ft
Pression 1014
Changement No Significant change. Runway 22: Clear and dry, , friction coefficient 0.70.
Brut UACC 212000Z 25007MPS 9999 BKN036 01/M03 Q1014 R22/0///70 NOSIG RMK QFE730/0973

VFR

1°C / -3°C

[Plus]
Vent 240º 14kt
Visibilité >10km
Météo -
Nuages Broken Clouds 3600ft
Pression 1014
Changement No Significant change. Runway 22: Clear and dry, , friction coefficient 0.70.
Brut UACC 211930Z 24007MPS 9999 BKN036 01/M03 Q1014 R22/0///70 NOSIG RMK QFE729/0972

VFR

1°C / -4°C

[Plus]
Vent 250º 12kt
Visibilité >10km
Météo -
Nuages Broken Clouds 3600ft
Pression 1014
Changement No Significant change. Runway 22: Clear and dry, , friction coefficient 0.70.
Brut UACC 211900Z 25006MPS 9999 BKN036 01/M04 Q1014 R22/0///70 NOSIG RMK QFE729/0972

VFR

1°C / -3°C

[Plus]
Vent 250º 12kt
Visibilité >10km
Météo -
Nuages Broken Clouds 3600ft
Pression 1013
Changement No Significant change. Runway 22: Clear and dry, , friction coefficient 0.70.
Brut UACC 211830Z 25006MPS 9999 BKN036 01/M03 Q1013 R22/0///70 NOSIG RMK QFE729/0972

VFR

1°C / -3°C

[Plus]
Vent 250º 12kt
Visibilité >10km
Météo -
Nuages Broken Clouds 3600ft
Pression 1013
Changement No Significant change. Runway 22: Clear and dry, , friction coefficient 0.70.
Brut UACC 211800Z 25006MPS 9999 BKN036 01/M03 Q1013 R22/0///70 NOSIG RMK QFE729/0972

VFR

1°C / -3°C

[Plus]
Vent 240º 12kt
Visibilité >10km
Météo -
Nuages Broken Clouds 3600ft
Pression 1013
Changement No Significant change. Runway 22: Clear and dry, , friction coefficient 0.70.
Brut UACC 211730Z 24006MPS 9999 BKN036 01/M03 Q1013 R22/0///70 NOSIG RMK QFE729/0972

VFR

1°C / -2°C

[Plus]
Vent 240º 12kt
Visibilité >10km
Météo -
Nuages Broken Clouds 4000ft
Pression 1013
Changement No Significant change. Runway 22: Clear and dry, , friction coefficient 0.70.
Brut UACC 211700Z 24006MPS 9999 BKN040 01/M02 Q1013 R22/0///70 NOSIG RMK QFE728/0971

VFR

2°C / -2°C

[Plus]
Vent 250º 10kt
Visibilité >10km
Météo -
Nuages Overcast 4000ft
Pression 1012
Changement No Significant change. Runway 22: Clear and dry, , friction coefficient 0.70.
Brut UACC 211630Z 25005MPS 9999 OVC040 02/M02 Q1012 R22/0///70 NOSIG RMK QFE728/0971

VFR

2°C / -2°C

[Plus]
Vent 250º 12kt
Visibilité >10km
Météo -
Nuages Overcast 3600ft
Pression 1012
Changement No Significant change. Runway 22: Clear and dry, , friction coefficient 0.70.
Brut UACC 211600Z 25006MPS 9999 OVC036 02/M02 Q1012 R22/0///70 NOSIG RMK QFE728/0971

VFR

2°C / -2°C

[Plus]
Vent 250º 12kt
Visibilité >10km
Météo -
Nuages Overcast 3300ft
Pression 1012
Changement No Significant change. Runway 22: Clear and dry, , friction coefficient 0.70.
Brut UACC 211530Z 25006MPS 9999 OVC033 02/M02 Q1012 R22/0///70 NOSIG RMK QFE728/0970

TAF pour 51.02°N 71.47°E (UACC)

From till


Maximum Temperature 6ºC on . Minimum Temperature 0ºC on .
From till Wind 230º 16kt. Visibility 10km or more. Broken Clouds 1100ft. Broken Clouds 3000ft.
Temporarly from till Wind 240º 16kt. Gust 25kt. Visibility 3100m. Light Showers Snow Light Showers Rain . Broken Clouds 500ft. Overcast 1100ft.
Temporarly from till Wind 220º 25kt. Gust 35kt. Scattered Clouds 2000ft.
Becoming from till Wind 230º 25kt. Visibility 10km or more. Broken Clouds 1100ft. Broken Clouds 3000ft.
Temporarly from till Wind 220º 23kt. Gust 33kt. Visibility 3100m. Light Showers Rain Light Showers Snow . Scattered Clouds 700ft. Overcast 1100ft.

Brut: TAF UACC 212306Z 2200/2224 23008MPS 9999 BKN011 BKN030 TX06/2209Z TN00/2201Z TEMPO 2200/2206 24008G13MPS 3100 -SHSNRA BKN005 OVC011CB BECMG 2206/2207 23013MPS TEMPO 2206/2211 22013G18MPS SCT020CB TEMPO 2211/2224 22012G17MPS 3100 -SHRASN SCT007 OVC011CB

Les images satellites et les pluies actuelles pour 51.02°N 71.47°E

Le marqueur est placé sur 51.02°N 71.47°E. [Plus]

L'image satellite en temps réel combine la lumière visible pendant la journée et le rayonnement infrarouge pendant la nuit. La nuit, l'image n'est pas sombre car le rayonnement infrarouge permet de détecter les différences de température. Malheureusement, les nuages bas et le brouillard sont difficiles à distinguer des températures au sol et peuvent donc être presque invisibles pendant la nuit. Les images des satellites Météosat pour l'Europe sont mises à jour en temps réel toutes les 5 minutes. Les images GOES-16/GOES-17 (Amérique du Nord et du Sud) et Himawari (Asie) sont mises à jour toutes les 10 minutes.

Copyright 2021 EUMETSAT / meteoblue. / Copyright 2021 meteoblue

Radar et prévision de précipitation à court terme pour 51.02°N 71.47°E

Bruine
Légère
Modéré
Fort
Très fort
Grêle

Le marqueur est placé sur 51.02°N 71.47°E. Cette animation montre le Radar des précipitations pour les dernières heures, ainsi qu'une 1h prévision. La bruine ou les légères chutes de neiges peuvent ne pas être détectées par le radar. L'intensité des précipitations est visible avec un code couleur allant du bleu clair au violet foncé et orange.